Flag for Canada Weather past 2 weeks in Hay River, Northwest Territories, Canada

Now
54 °F

Scattered clouds.


Feels Like: 52 °F
Forecast: 41 / 58 °F
Wind: 6 mph from North

Location: Hay River

Current Time: Sep 1, 2015 at 2:42:24 PM

Latest Report: Sep 1, 2015 at 2:00 PM


Visibility: 15 mi

Pressure: 29.59 "Hg

Humidity: 67%

Dew point: 43 °F

Location of Hay RiverLocation

Historic Weather in Hay River — Graph

°F

Hay River temperature yesterday

Maximum temperature yesterday: 66 °F (at 1:00 PM)
Minimum temperature yesterday: 50 °F (at 5:00 AM)
Average temperature yesterday: 58 °F

Past Weeks' High & Low Weather Summary

 TemperatureHumidityPressure
High77 °F (Aug 27, 4:00 PM)100% (Aug 18, 12:00 AM)30.15 "Hg (Aug 18, 12:00 AM)
Low39 °F (Sep 1, 7:00 AM)31% (Aug 27, 5:00 PM)29.16 "Hg (Aug 30, 7:00 PM)
Average56 °F75%29.70 "Hg
* Reported Aug 17 1:00 PM — Sep 1 1:00 PM, Hay River, Weather by CustomWeather, © 2015

Note: Actual official high and low records may vary slightly from our data, if they occured in-between our weather recording intervals... More about our weather records

Advertising

Hay River weather history for previous 24 hours

 ConditionsComfort  
Time TempWeatherWind HumidityBarometerVisibility
1:00 PM
Tue, Sep 1
54 °FScattered clouds.5 mph63%29.57 "Hg15 mi
12:00 PM52 °FScattered clouds.7 mph67%29.56 "Hg15 mi
11:00 AM50 °FScattered clouds.5 mph71%29.54 "Hg15 mi
10:00 AM46 °FScattered clouds.6 mph76%29.54 "Hg15 mi
9:00 AM46 °FScattered clouds.6 mph82%29.52 "Hg15 mi
8:00 AM41 °FScattered clouds.6 mph93%29.51 "Hg15 mi
7:00 AM39 °FPassing clouds.5 mph100%29.49 "Hg15 mi
6:00 AM41 °FPassing clouds.6 mph93%29.48 "Hg15 mi
5:00 AM41 °FPassing clouds.6 mph93%29.46 "Hg15 mi
4:00 AM43 °FPassing clouds.8 mph93%29.42 "Hg15 mi
3:00 AM45 °FPassing clouds.12 mph93%29.41 "Hg15 mi
2:00 AM45 °FPassing clouds.6 mph87%29.41 "Hg15 mi
1:00 AM46 °FPassing clouds.7 mph82%29.40 "Hg15 mi
12:00 AM48 °FPassing clouds.8 mph76%29.39 "Hg15 mi
11:00 PM
Mon, Aug 31
52 °FPassing clouds.10 mph62%29.37 "Hg15 mi
10:00 PM52 °FPassing clouds.5 mph67%29.35 "Hg15 mi
9:00 PM57 °FBroken clouds.14 mph48%29.36 "Hg15 mi
8:00 PM59 °FPassing clouds.9 mph48%29.34 "Hg15 mi
7:00 PM63 °FScattered clouds.9 mph45%29.32 "Hg15 mi
6:00 PM63 °FScattered clouds.17 mph45%29.31 "Hg15 mi
5:00 PM63 °FScattered clouds.24 mph42%29.29 "Hg15 mi
4:00 PM66 °FScattered clouds.21 mph43%29.26 "Hg15 mi
3:00 PM64 °FScattered clouds.23 mph49%29.23 "Hg15 mi
2:00 PM66 °FBroken clouds.17 mph43%29.20 "Hg15 mi
Weather by CustomWeather, © 2015

See weather overviewHow to use our weather pages